Location: Banksville Park
(38.5557°N, 75.1182°W)
Time: 05:25:50
(UTC+00:00)

Timation 1 Rocket - Pass Details

Date: 19 September 2020
Orbit: 897 x 910 km, 70.0° (Epoch: 20 October)

Event Time Altitude Azimuth Distance (km) Brightness Sun altitude
Rises 08:32:32 0° 337° (NNW) 3,538 7.5 -26.1°
Reaches altitude 10° 08:35:02 10° 338° (NNW) 2,595 6.7 -25.6°
Maximum altitude 08:41:03 80° 65° (ENE) 926 4.4 -24.5°
Drops below altitude 10° 08:47:03 10° 153° (SSE) 2,586 6.8 -23.5°
Sets 08:49:32 0° 155° (SSE) 3,524 7.5 -23.0°
